This demonstration page uses our WeatherBlox Daily Observations layout. Learn more.

Left ArrowRight Arrow

38.80484, -77.04692

Hourly Observations for October 11, 2020

Temp ( °F °C ) Dew Point ( °F °C ) Humidity (%) Winds ( mph kmh ) Pressure ( in mb ) Visibility ( mi km ) Precip ( " mm )
12:52 am 00:52 Cloudy 67 19.4 64 17.8 91 91 SSW 7 11 30.01 1016 10 16 0.00 0.00
1:52 am 01:52 Cloudy 67 19.4 63 17.2 87 87 S 5 7 30.02 1017 10 16 0.00 0.00
2:52 am 02:52 Cloudy 66 18.9 64 17.8 93 93 S 7 11 30.02 1017 10 16 0.00 0.00
3:52 am 03:52 Cloudy 66 18.9 64 17.8 93 93 S 5 7 30.00 1016 10 16 0.00 0.00
4:52 am 04:52 Cloudy 66 18.9 63 17.2 90 90 WSW 3 6 30.00 1016 10 16 0.00 0.00
5:52 am 05:52 Cloudy 66 18.9 63 17.2 90 90 SSW 5 7 30.02 1017 10 16 0.00 0.00
6:42 am 06:42 Mostly Cloudy 66 18.9 63 17.2 90 90 SSW 3 6 30.02 1017 10 16 0.00 0.00
6:52 am 06:52 Mostly Cloudy 66 18.9 63 17.2 90 90 SSW 5 7 30.03 1017 10 16 0.00 0.00
7:10 am 07:10 Mostly Cloudy 66 18.9 63 17.2 90 90 SSW 3 6 30.03 1017 10 16 0.00 0.00
7:16 am 07:16 Mostly Cloudy 66 18.9 64 17.8 93 93 SSW 3 6 30.04 1017 10 16 0.00 0.00
7:39 am 07:39 Cloudy 66 18.9 64 17.8 93 93 Calm 30.04 1017 10 16 0.00 0.00
7:52 am 07:52 Cloudy 66 18.9 64 17.8 93 93 Calm 30.04 1017 10 16 0.00 0.00
8:31 am 08:31 Cloudy 67 19.4 64 17.8 91 91 Calm 30.05 1018 10 16 0.00 0.00
8:52 am 08:52 Cloudy 67 19.4 64 17.8 91 91 S 3 6 30.05 1018 10 16 0.00 0.00
9:52 am 09:52 Mostly Cloudy 68 20 65 18.3 90 90 S 7 11 30.06 1018 10 16 0.00 0.00
10:23 am 10:23 Mostly Cloudy 68 20 65 18.3 90 90 SSE 5 7 30.07 1018 10 16 0.00 0.00
10:52 am 10:52 Cloudy 69 20.6 65 18.3 87 87 S 5 7 30.07 1018 10 16 0.00 0.00
11:09 am 11:09 Cloudy 70 21.1 64 17.8 82 82 Calm 30.07 1018 10 16 0.00 0.00
11:52 am 11:52 Cloudy 71 21.7 65 18.3 81 81 Calm 30.05 1018 10 16 0.00 0.00
12:52 pm 12:52 Cloudy 70 21.1 65 18.3 84 84 S 6 9 30.04 1017 10 16 0.00 0.00
1:52 pm 13:52 Cloudy with Light Rain 70 21.1 66 18.9 87 87 SSW 3 6 30.04 1017 7 11 0.01 0.25
2:52 pm 14:52 Cloudy with Light Rain 69 20.6 66 18.9 90 90 S 6 9 30.03 1017 10 16 0.01 0.25
3:52 pm 15:52 Cloudy with Light Rain 69 20.6 66 18.9 90 90 Calm 30.03 1017 7 11 0.01 0.25
4:21 pm 16:21 Cloudy with Light Rain 70 21.1 67 19.4 90 90 Calm 30.04 1017 5 8 0.03 0.76
4:35 pm 16:35 Cloudy with Light Rain 69 20.6 67 19.4 93 93 ESE 7 11 30.03 1017 10 16 0.04 1.02
4:52 pm 16:52 Cloudy 69 20.6 66 18.9 90 90 ESE 5 7 30.04 1017 10 16 0.04 1.02
5:00 pm 17:00 Cloudy 69 20.6 67 19.4 93 93 E 8 13 30.03 1017 10 16 0.00 0.00
5:12 pm 17:12 Cloudy with Light Rain 69 20.6 66 18.9 90 90 ESE 7 11 30.04 1017 9 14 0.00 0.00
5:19 pm 17:19 Cloudy with Light Rain 69 20.6 66 18.9 90 90 E 7 11 30.04 1017 6 10 0.00 0.00
5:31 pm 17:31 Cloudy with Light Rain 68 20 66 18.9 93 93 E 10 17 30.03 1017 3 4 0.00 0.00
5:40 pm 17:40 Cloudy with Light Rain 68 20 66 18.9 93 93 E 8 13 30.04 1017 3 4 0.01 0.25
5:52 pm 17:52 Cloudy with Light Rain 68 20 65 18.3 90 90 ESE 12 19 30.03 1017 4 6 0.02 0.51
6:38 pm 18:38 Cloudy with Rain 68 20 66 18.9 93 93 ENE 5 7 30.06 1018 3 4 0.03 0.76
6:50 pm 18:50 Cloudy with Rain 68 20 66 19 94 94 ENE 5 7 30.06 1018 2 3 0.06 1.52
6:52 pm 18:52 Cloudy with Rain 68 20 66 18.9 93 93 ENE 6 9 30.05 1018 2 3 0.07 1.78
7:02 pm 19:02 Cloudy with Light Rain 68 20 66 18.9 93 93 E 6 9 30.05 1018 3 5 0.02 0.51
7:52 pm 19:52 Cloudy with Light Rain 67 19.4 65 18.3 93 93 E 8 13 30.05 1018 7 11 0.08 2.03
8:29 pm 20:29 Cloudy with Rain 67 19.4 65 18.3 93 93 E 10 17 30.05 1018 4 6 0.07 1.78
8:45 pm 20:45 Cloudy with Light Rain 67 19.4 65 18.3 93 93 E 12 19 30.05 1018 5 8 0.11 2.79
8:52 pm 20:52 Cloudy with Light Rain 67 19.4 65 18.3 93 93 E 10 17 30.04 1017 7 11 0.12 3.05
9:52 pm 21:52 Cloudy with Light Rain 67 19.4 64 17.8 91 91 E 9 15 30.05 1018 9 14 0.10 2.54
10:15 pm 22:15 Cloudy with Light Rain 67 19.4 64 17.8 91 91 E 8 13 30.05 1018 6 10 0.00 0.00
10:17 pm 22:17 Cloudy with Light Rain 67 19.4 64 17.8 91 91 E 8 13 30.04 1017 6 10 0.00 0.00
10:30 pm 22:30 Cloudy with Rain 66 18.9 65 18.3 96 96 E 6 9 30.04 1017 4 6 0.02 0.51
10:52 pm 22:52 Cloudy with Light Rain 67 19.4 65 18.3 93 93 E 7 11 30.04 1017 6 10 0.05 1.27
11:23 pm 23:23 Cloudy with Rain 66 18.9 65 18.3 96 96 E 8 13 30.03 1017 3 4 0.05 1.27
11:29 pm 23:29 Cloudy with Light Rain 66 18.9 65 18.3 96 96 ENE 9 15 30.03 1017 3 5 0.07 1.78
11:48 pm 23:48 Cloudy with Light Rain 66 19 64 18 94 94 ENE 9 15 30.02 1017 6 10 0.09 2.29
11:52 pm 23:52 Cloudy with Light Rain 66 18.9 64 17.8 93 93 ENE 9 15 30.02 1017 6 10 0.09 2.29

Powered by AerisWeather